User: anonymous   Login
Location: Kalberh�ni
(46.4610°N, 7.2453°E)
Time: 09:40:13
(UTC+00:00)
Language:

Cosmos 1992 Rocket - Orbit

View from above orbital plane
View from above orbital plane
View from above satellite
View from above satellite

Ground track
Ground track

The orbit data is extracted from the following two-line orbital elements,

1 19770U 89005B   21259.70896896  .00000119  00000-0  47113-4 0  9999
2 19770  74.0441  67.6684 0004102 129.3430 241.8165 14.38881625709573
Epoch (UTC): 16 September 2021 17:00:54
Eccentricity: 0.0004102
inclination: 74.0441°
perigee height: 759 km
apogee height: 765 km
right ascension of ascending node: 67.6684°
argument of perigee: 129.3430°
revolutions per day: 14.38881625
mean anomaly at epoch: 241.8165°
orbit number at epoch: 70957

The dashed part of the orbit path shows where the satellite is in the earth's shadow,  

DLR